,,PA_Meas_PMT16A,,PR_Meas_QMR101_102,,RH_Meas_QMH101,,SR_Meas_QMS101,,TA_Meas_QMH101,,GenWind,,GenWind,
time,status,PA,status,PR,status,RH,status,SR,status,TA,status,DirAvg,status,SpdAvg,
2012-11-21, 00:00:04,VALID,918.458,VALID,0,VALID,96.238,VALID,0.107441,VALID,20.2699,VALID,328,VALID,0,
2012-11-21, 00:01:04,VALID,918.471,VALID,0,VALID,96.3447,VALID,0.107441,VALID,20.2879,VALID,328,VALID,0,
2012-11-21, 00:02:04,VALID,918.458,VALID,0,VALID,96.3371,VALID,0,VALID,20.2879,VALID,328,VALID,0,
2012-11-21, 00:03:04,VALID,918.447,VALID,0,VALID,96.3295,VALID,0.107441,VALID,20.2879,VALID,328,VALID,0,
2012-11-21, 00:04:04,VALID,918.482,VALID,0,VALID,96.2304,VALID,0,VALID,20.2504,VALID,328,VALID,0,
2012-11-21, 00:05:04,VALID,918.434,VALID,0,VALID,96.2075,VALID,0,VALID,20.2309,VALID,328,VALID,0,
2012-11-21, 00:06:04,VALID,918.408,VALID,0,VALID,96.2456,VALID,0,VALID,20.2309,VALID,328,VALID,0,
2012-11-21, 00:07:04,VALID,918.4,VALID,0,VALID,96.238,VALID,0,VALID,20.2114,VALID,328,VALID,0,
2012-11-21, 00:08:04,VALID,918.387,VALID,0,VALID,96.299,VALID,0,VALID,20.2309,VALID,328,VALID,0,
2012-11-21, 00:09:04,VALID,918.371,VALID,0,VALID,96.2914,VALID,0,VALID,20.2519,VALID,328,VALID,0,
2012-11-21, 00:10:04,VALID,918.395,VALID,0,VALID,96.2914,VALID,0,VALID,20.2714,VALID,328,VALID,0,
2012-11-21, 00:11:04,VALID,918.366,VALID,0,VALID,96.238,VALID,0,VALID,20.2519,VALID,328,VALID,0,
2012-11-21, 00:12:04,VALID,918.351,VALID,0,VALID,96.2761,VALID,0,VALID,20.2309,VALID,328,VALID,0,
2012-11-21, 00:13:04,VALID,918.362,VALID,0,VALID,96.1541,VALID,0,VALID,20.2309,VALID,328,VALID,0,
2012-11-21, 00:14:04,VALID,918.339,VALID,0,VALID,95.9102,VALID,0,VALID,20.1529,VALID,328,VALID,0,
2012-11-21, 00:15:04,VALID,918.345,VALID,0,VALID,95.7958,VALID,0,VALID,20.1139,VALID,328,VALID,0,
2012-11-21, 00:16:04,VALID,918.314,VALID,0,VALID,95.7349,VALID,0,VALID,20.0358,VALID,328,VALID,0,
2012-11-21, 00:17:04,VALID,918.299,VALID,0,VALID,95.7501,VALID,0,VALID,19.9984,VALID,328,VALID,0,
2012-11-21, 00:18:04,VALID,918.306,VALID,0,VALID,95.7272,VALID,0,VALID,19.9383,VALID,328,VALID,0,
2012-11-21, 00:19:04,VALID,918.27,VALID,0,VALID,95.8187,VALID,0,VALID,19.9188,VALID,328,VALID,0,
2012-11-21, 00:20:04,VALID,918.258,VALID,0,VALID,95.8263,VALID,0,VALID,19.8993,VALID,328,VALID,0,
2012-11-21, 00:21:04,VALID,918.27,VALID,0,VALID,95.8035,VALID,0,VALID,19.8798,VALID,328,VALID,0,
2012-11-21, 00:22:04,VALID,918.237,VALID,0,VALID,95.834,VALID,0,VALID,19.8603,VALID,328,VALID,0,
2012-11-21, 00:23:04,VALID,918.231,VALID,0,VALID,95.8645,VALID,0,VALID,19.8618,VALID,328,VALID,0,
2012-11-21, 00:24:04,VALID,918.224,VALID,0,VALID,95.9483,VALID,0,VALID,19.8618,VALID,328,VALID,0,
2012-11-21, 00:25:04,VALID,918.197,VALID,0,VALID,96.0245,VALID,0,VALID,19.9008,VALID,328,VALID,0,
2012-11-21, 00:26:04,VALID,918.23,VALID,0,VALID,96.055,VALID,0,VALID,19.8813,VALID,328,VALID,0,
2012-11-21, 00:27:04,VALID,918.225,VALID,0,VALID,96.0627,VALID,0,VALID,19.8603,VALID,328,VALID,0,
2012-11-21, 00:28:04,VALID,918.223,VALID,0,VALID,96.055,VALID,0,VALID,19.8423,VALID,328,VALID,0,
2012-11-21, 00:29:04,VALID,918.234,VALID,0,VALID,96.0855,VALID,0,VALID,19.8213,VALID,328,VALID,0,
2012-11-21, 00:30:04,VALID,918.232,VALID,0,VALID,96.1236,VALID,0.107441,VALID,19.8003,VALID,328,VALID,0,
2012-11-21, 00:31:04,VALID,918.27,VALID,0,VALID,96.1541,VALID,0,VALID,19.7613,VALID,328,VALID,0,
2012-11-21, 00:32:04,VALID,918.227,VALID,0,VALID,96.1618,VALID,0,VALID,19.7223,VALID,328,VALID,0,
2012-11-21, 00:33:04,VALID,918.254,VALID,0,VALID,96.2228,VALID,0,VALID,19.7433,VALID,63,VALID,0,
2012-11-21, 00:34:04,VALID,918.235,VALID,0,VALID,96.2761,VALID,0,VALID,19.7043,VALID,63,VALID,0,
2012-11-21, 00:35:04,VALID,918.217,VALID,0,VALID,96.3524,VALID,0,VALID,19.6848,VALID,63,VALID,0,
2012-11-21, 00:36:04,VALID,918.212,VALID,0,VALID,96.3752,VALID,0,VALID,19.6653,VALID,63,VALID,0,
2012-11-21, 00:37:04,VALID,918.204,VALID,0,VALID,96.4362,VALID,0,VALID,19.6458,VALID,63,VALID,0,
2012-11-21, 00:38:04,VALID,918.182,VALID,0,VALID,96.4362,VALID,0,VALID,19.6278,VALID,63,VALID,0,
2012-11-21, 00:39:04,VALID,918.188,VALID,0,VALID,96.4515,VALID,0,VALID,19.6068,VALID,63,VALID,0,
2012-11-21, 00:40:04,VALID,918.16,VALID,0,VALID,96.4896,VALID,0,VALID,19.5678,VALID,63,VALID,0,
2012-11-21, 00:41:04,VALID,918.144,VALID,0,VALID,96.5277,VALID,0,VALID,19.5693,VALID,63,VALID,0,
2012-11-21, 00:42:04,VALID,918.152,VALID,0,VALID,96.5506,VALID,0,VALID,19.5498,VALID,63,VALID,0,
2012-11-21, 00:43:04,VALID,918.139,VALID,0,VALID,96.6115,VALID,0,VALID,19.5693,VALID,63,VALID,0,
2012-11-21, 00:44:04,VALID,918.128,VALID,0,VALID,96.642,VALID,0,VALID,19.5483,VALID,63,VALID,0,
2012-11-21, 00:45:04,VALID,918.12,VALID,0,VALID,96.6878,VALID,0,VALID,19.5693,VALID,63,VALID,0,
2012-11-21, 00:46:04,VALID,918.12,VALID,0,VALID,96.7335,VALID,0,VALID,19.5693,VALID,63,VALID,0,
2012-11-21, 00:47:04,VALID,918.094,VALID,0,VALID,96.7411,VALID,0,VALID,19.5288,VALID,63,VALID,0,
2012-11-21, 00:48:05,VALID,918.052,VALID,0,VALID,96.764,VALID,0,VALID,19.5693,VALID,63,VALID,0,
2012-11-21, 00:49:05,VALID,918.082,VALID,0,VALID,96.7869,VALID,0,VALID,19.5678,VALID,63,VALID,0,
2012-11-21, 00:50:05,VALID,918.047,VALID,0,VALID,96.7945,VALID,0.107441,VALID,19.5663,VALID,63,VALID,0,
2012-11-21, 00:51:05,VALID,918.048,VALID,0,VALID,96.825,VALID,0,VALID,19.5858,VALID,63,VALID,0,
2012-11-21, 00:52:05,VALID,918.028,VALID,0,VALID,96.8479,VALID,0,VALID,19.5873,VALID,63,VALID,0,
2012-11-21, 00:53:05,VALID,918.025,VALID,0,VALID,96.8555,VALID,0.107441,VALID,19.6068,VALID,63,VALID,0,
2012-11-21, 00:54:05,VALID,918.024,VALID,0,VALID,96.8555,VALID,0.107441,VALID,19.6068,VALID,63,VALID,0,
2012-11-21, 00:55:05,VALID,918.023,VALID,0,VALID,96.8784,VALID,0,VALID,19.5858,VALID,63,VALID,0,
2012-11-21, 00:56:05,VALID,918.023,VALID,0,VALID,96.8707,VALID,0.107441,VALID,19.6068,VALID,63,VALID,0,
2012-11-21, 00:57:05,VALID,918.029,VALID,0,VALID,96.8707,VALID,0,VALID,19.5873,VALID,63,VALID,0,
2012-11-21, 00:58:05,VALID,918.014,VALID,0,VALID,96.8555,VALID,0,VALID,19.5483,VALID,63,VALID,0,
2012-11-21, 00:59:05,VALID,918.009,VALID,0,VALID,96.8555,VALID,0.107441,VALID,19.5678,VALID,63,VALID,0,
2012-11-21, 01:00:05,VALID,918.029,VALID,0,VALID,96.886,VALID,0,VALID,19.5873,VALID,63,VALID,0,
2012-11-21, 01:01:05,VALID,918.025,VALID,0,VALID,96.9012,VALID,0.107441,VALID,19.6068,VALID,63,VALID,0,
2012-11-21, 01:02:05,VALID,917.998,VALID,0,VALID,96.9241,VALID,0,VALID,19.5663,VALID,63,VALID,0,
2012-11-21, 01:03:05,VALID,917.99,VALID,0,VALID,96.9394,VALID,0,VALID,19.5663,VALID,63,VALID,0,
2012-11-21, 01:04:05,VALID,917.987,VALID,0,VALID,96.9698,VALID,0,VALID,19.6068,VALID,63,VALID,0,
2012-11-21, 01:05:05,VALID,918.016,VALID,0,VALID,96.9851,VALID,0,VALID,19.5858,VALID,63,VALID,0,
2012-11-21, 01:06:05,VALID,918.001,VALID,0,VALID,97.0003,VALID,0.107441,VALID,19.5858,VALID,63,VALID,0,
2012-11-21, 01:07:05,VALID,918.022,VALID,0,VALID,97.008,VALID,0,VALID,19.5858,VALID,63,VALID,0,
2012-11-21, 01:08:05,VALID,917.989,VALID,0,VALID,97.0232,VALID,0,VALID,19.6263,VALID,353,VALID,0,
2012-11-21, 01:09:05,VALID,917.972,VALID,0,VALID,97.0308,VALID,0,VALID,19.6263,VALID,353,VALID,0,
2012-11-21, 01:10:05,VALID,917.969,VALID,0,VALID,97.0461,VALID,0,VALID,19.6458,VALID,353,VALID,0,
2012-11-21, 01:11:05,VALID,917.96,VALID,0,VALID,97.0537,VALID,0,VALID,19.6263,VALID,353,VALID,0,
2012-11-21, 01:12:05,VALID,917.954,VALID,0,VALID,97.069,VALID,0.107441,VALID,19.6263,VALID,353,VALID,0,
2012-11-21, 01:13:05,VALID,917.919,VALID,0,VALID,97.069,VALID,0,VALID,19.6458,VALID,353,VALID,0,
2012-11-21, 01:14:05,VALID,917.909,VALID,0,VALID,97.0842,VALID,0,VALID,19.6053,VALID,353,VALID,0,
2012-11-21, 01:15:05,VALID,917.887,VALID,0,VALID,97.0994,VALID,0,VALID,19.6653,VALID,353,VALID,0,
2012-11-21, 01:16:05,VALID,917.898,VALID,0,VALID,97.0842,VALID,0.107441,VALID,19.6653,VALID,353,VALID,0,
2012-11-21, 01:17:05,VALID,917.899,VALID,0,VALID,97.0842,VALID,0,VALID,19.6848,VALID,353,VALID,0,
2012-11-21, 01:18:05,VALID,917.896,VALID,0,VALID,97.0994,VALID,0,VALID,19.6848,VALID,353,VALID,0,
2012-11-21, 01:19:05,VALID,917.911,VALID,0,VALID,97.0918,VALID,0,VALID,19.6653,VALID,353,VALID,0,
2012-11-21, 01:20:05,VALID,917.911,VALID,0,VALID,97.0994,VALID,0,VALID,19.6053,VALID,353,VALID,0,
2012-11-21, 01:21:05,VALID,917.892,VALID,0,VALID,97.0994,VALID,0.107441,VALID,19.6053,VALID,353,VALID,0,
2012-11-21, 01:22:05,VALID,917.849,VALID,0,VALID,97.0994,VALID,0,VALID,19.6068,VALID,353,VALID,0,
2012-11-21, 01:23:05,VALID,917.838,VALID,0,VALID,97.1147,VALID,0,VALID,19.5873,VALID,353,VALID,0,
2012-11-21, 01:24:05,VALID,917.849,VALID,0,VALID,97.0842,VALID,0,VALID,19.5468,VALID,353,VALID,0,
2012-11-21, 01:25:05,VALID,917.835,VALID,0,VALID,97.0766,VALID,0.107441,VALID,19.5273,VALID,353,VALID,0,
2012-11-21, 01:26:05,VALID,917.819,VALID,0,VALID,97.0842,VALID,0,VALID,19.5483,VALID,353,VALID,0,
2012-11-21, 01:27:05,VALID,917.785,VALID,0,VALID,97.0918,VALID,0.107441,VALID,19.5678,VALID,353,VALID,0,
2012-11-21, 01:28:05,VALID,917.778,VALID,0,VALID,97.1071,VALID,0,VALID,19.5483,VALID,353,VALID,0,
2012-11-21, 01:29:05,VALID,917.788,VALID,0,VALID,97.1071,VALID,0.107441,VALID,19.5288,VALID,353,VALID,0,
2012-11-21, 01:30:05,VALID,917.779,VALID,0,VALID,97.1071,VALID,0,VALID,19.4883,VALID,353,VALID,0,
2012-11-21, 01:31:05,VALID,917.784,VALID,0,VALID,97.0842,VALID,0,VALID,19.4898,VALID,353,VALID,0,
2012-11-21, 01:32:05,VALID,917.79,VALID,0,VALID,97.0918,VALID,0,VALID,19.5093,VALID,353,VALID,0,
2012-11-21, 01:33:05,VALID,917.774,VALID,0,VALID,97.1147,VALID,0,VALID,19.4883,VALID,353,VALID,0,
2012-11-21, 01:34:05,VALID,917.783,VALID,0,VALID,97.1071,VALID,0,VALID,19.5093,VALID,353,VALID,0,
2012-11-21, 01:35:05,VALID,917.758,VALID,0,VALID,97.1223,VALID,0.107441,VALID,19.4688,VALID,353,VALID,0,
2012-11-21, 01:36:05,VALID,917.76,VALID,0,VALID,97.1223,VALID,0.107441,VALID,19.4688,VALID,353,VALID,0,
2012-11-21, 01:37:05,VALID,917.768,VALID,0,VALID,97.1147,VALID,0.107441,VALID,19.4688,VALID,353,VALID,0,
2012-11-21, 01:38:05,VALID,917.74,VALID,0,VALID,97.1299,VALID,0.107441,VALID,19.4508,VALID,353,VALID,0,
2012-11-21, 01:39:05,VALID,917.708,VALID,0,VALID,97.1376,VALID,0,VALID,19.4313,VALID,353,VALID,0,
2012-11-21, 01:40:05,VALID,917.675,VALID,0,VALID,97.1299,VALID,0,VALID,19.4313,VALID,353,VALID,0,
2012-11-21, 01:41:05,VALID,917.675,VALID,0,VALID,97.1223,VALID,0,VALID,19.3908,VALID,353,VALID,0,
2012-11-21, 01:42:05,VALID,917.631,VALID,0,VALID,97.1147,VALID,0.107441,VALID,19.3713,VALID,353,VALID,0,
2012-11-21, 01:43:05,VALID,917.591,VALID,0,VALID,97.1223,VALID,0.107441,VALID,19.3518,VALID,353,VALID,0,
2012-11-21, 01:44:05,VALID,917.547,VALID,0,VALID,97.1223,VALID,0.107441,VALID,19.3128,VALID,353,VALID,0,
2012-11-21, 01:45:05,VALID,917.55,VALID,0,VALID,97.1147,VALID,0,VALID,19.2933,VALID,353,VALID,0,
2012-11-21, 01:46:05,VALID,917.486,VALID,0,VALID,97.0842,VALID,0,VALID,19.2543,VALID,353,VALID,0,
2012-11-21, 01:47:05,VALID,917.42,VALID,0,VALID,97.0842,VALID,0,VALID,19.1958,VALID,353,VALID,0,
2012-11-21, 01:48:05,VALID,917.42,VALID,0,VALID,97.0613,VALID,0,VALID,19.1583,VALID,353,VALID,0,
2012-11-21, 01:49:05,VALID,917.396,VALID,0,VALID,97.0766,VALID,0.107441,VALID,19.1388,VALID,353,VALID,0,
2012-11-21, 01:50:05,VALID,917.375,VALID,0,VALID,97.069,VALID,0,VALID,19.0398,VALID,353,VALID,0,
2012-11-21, 01:51:05,VALID,917.347,VALID,0,VALID,97.0613,VALID,0,VALID,19.0413,VALID,353,VALID,0,
2012-11-21, 01:52:05,VALID,917.332,VALID,0,VALID,97.069,VALID,0,VALID,19.0218,VALID,353,VALID,0,
2012-11-21, 01:53:05,VALID,917.35,VALID,0,VALID,97.0918,VALID,0,VALID,19.0413,VALID,353,VALID,0,
2012-11-21, 01:54:05,VALID,917.335,VALID,0,VALID,97.0918,VALID,0,VALID,19.0427,VALID,353,VALID,0,
2012-11-21, 01:55:05,VALID,917.344,VALID,0,VALID,97.069,VALID,0,VALID,19.0023,VALID,353,VALID,0,
2012-11-21, 01:56:05,VALID,917.328,VALID,0,VALID,97.0537,VALID,0,VALID,19.0218,VALID,353,VALID,0,
2012-11-21, 01:57:05,VALID,917.328,VALID,0,VALID,97.0156,VALID,0,VALID,19.0218,VALID,353,VALID,0,
2012-11-21, 01:58:05,VALID,917.347,VALID,0,VALID,97.0156,VALID,0.107441,VALID,19.0218,VALID,353,VALID,0,
2012-11-21, 01:59:05,VALID,917.327,VALID,0,VALID,96.9622,VALID,0,VALID,19.0023,VALID,353,VALID,0,
2012-11-21, 02:00:05,VALID,917.331,VALID,0,VALID,96.9089,VALID,0,VALID,18.9828,VALID,353,VALID,0,
2012-11-21, 02:01:05,VALID,917.348,VALID,0,VALID,96.8174,VALID,0,VALID,18.9828,VALID,353,VALID,0,
2012-11-21, 02:02:05,VALID,917.321,VALID,0,VALID,96.7716,VALID,0,VALID,18.9633,VALID,353,VALID,0,
2012-11-21, 02:03:05,VALID,917.316,VALID,0,VALID,96.6344,VALID,0,VALID,18.9438,VALID,353,VALID,0,
2012-11-21, 02:04:05,VALID,917.325,VALID,0,VALID,96.421,VALID,0.107441,VALID,18.8853,VALID,353,VALID,0,
2012-11-21, 02:05:05,VALID,917.303,VALID,0,VALID,96.421,VALID,0,VALID,18.8463,VALID,353,VALID,0,
2012-11-21, 02:06:05,VALID,917.331,VALID,0,VALID,96.4438,VALID,0,VALID,18.8268,VALID,353,VALID,0,
2012-11-21, 02:07:05,VALID,917.325,VALID,0,VALID,96.4515,VALID,0,VALID,18.8268,VALID,353,VALID,0,
2012-11-21, 02:08:05,VALID,917.303,VALID,0,VALID,96.4591,VALID,0.107441,VALID,18.8073,VALID,353,VALID,0,
2012-11-21, 02:09:05,VALID,917.299,VALID,0,VALID,96.4819,VALID,0,VALID,18.8268,VALID,353,VALID,0,
2012-11-21, 02:10:05,VALID,917.301,VALID,0,VALID,96.4667,VALID,0,VALID,18.8463,VALID,353,VALID,0,
2012-11-21, 02:11:05,VALID,917.252,VALID,0,VALID,96.5353,VALID,0,VALID,18.8658,VALID,353,VALID,0,
2012-11-21, 02:12:05,VALID,917.248,VALID,0,VALID,96.4819,VALID,0.107441,VALID,18.9048,VALID,353,VALID,0,
2012-11-21, 02:13:05,VALID,917.229,VALID,0,VALID,96.2761,VALID,0,VALID,18.8658,VALID,353,VALID,0,
2012-11-21, 02:14:05,VALID,917.223,VALID,0,VALID,95.9941,VALID,0.107441,VALID,18.7878,VALID,353,VALID,0,
2012-11-21, 02:15:05,VALID,917.166,VALID,0,VALID,95.8873,VALID,0.107441,VALID,18.7488,VALID,353,VALID,0,
2012-11-21, 02:16:05,VALID,917.18,VALID,0,VALID,95.8416,VALID,0,VALID,18.6903,VALID,353,VALID,0,
2012-11-21, 02:17:05,VALID,917.144,VALID,0,VALID,95.834,VALID,0,VALID,18.6513,VALID,353,VALID,0,
2012-11-21, 02:18:05,VALID,917.181,VALID,0,VALID,95.834,VALID,0,VALID,18.6319,VALID,353,VALID,0,
2012-11-21, 02:19:05,VALID,917.128,VALID,0,VALID,95.8492,VALID,0,VALID,18.5929,VALID,353,VALID,0,
2012-11-21, 02:20:05,VALID,917.127,VALID,0,VALID,95.8035,VALID,0,VALID,18.6124,VALID,353,VALID,0,
2012-11-21, 02:21:05,VALID,917.111,VALID,0,VALID,95.7272,VALID,0,VALID,18.5929,VALID,353,VALID,0,
2012-11-21, 02:22:05,VALID,917.083,VALID,0,VALID,95.8568,VALID,0,VALID,18.6124,VALID,353,VALID,0,
2012-11-21, 02:23:05,VALID,917.08,VALID,0,VALID,95.773,VALID,0,VALID,18.6513,VALID,353,VALID,0,
2012-11-21, 02:24:05,VALID,917.063,VALID,0,VALID,95.6357,VALID,0,VALID,18.6903,VALID,353,VALID,0,
2012-11-21, 02:25:05,VALID,917.048,VALID,0,VALID,95.5443,VALID,0,VALID,18.6903,VALID,353,VALID,0,
2012-11-21, 02:26:05,VALID,917.038,VALID,0,VALID,95.5443,VALID,0.107441,VALID,18.7293,VALID,353,VALID,0,
2012-11-21, 02:27:05,VALID,917.012,VALID,0,VALID,95.5824,VALID,0,VALID,18.7488,VALID,353,VALID,0,
2012-11-21, 02:28:05,VALID,916.991,VALID,0,VALID,95.6053,VALID,0,VALID,18.7683,VALID,353,VALID,0,
2012-11-21, 02:29:05,VALID,916.964,VALID,0,VALID,95.5443,VALID,0,VALID,18.7892,VALID,353,VALID,0,
2012-11-21, 02:30:05,VALID,916.943,VALID,0,VALID,95.5214,VALID,0,VALID,18.7683,VALID,353,VALID,0,
2012-11-21, 02:31:05,VALID,916.964,VALID,0,VALID,95.4757,VALID,0,VALID,18.7293,VALID,353,VALID,0,
2012-11-21, 02:32:05,VALID,916.961,VALID,0,VALID,95.468,VALID,0,VALID,18.7293,VALID,353,VALID,0,
2012-11-21, 02:33:05,VALID,916.954,VALID,0,VALID,95.5443,VALID,0,VALID,18.7488,VALID,353,VALID,0,
2012-11-21, 02:34:05,VALID,916.929,VALID,0,VALID,95.5443,VALID,0,VALID,18.7488,VALID,353,VALID,0,
2012-11-21, 02:35:05,VALID,916.923,VALID,0,VALID,95.4604,VALID,0,VALID,18.7293,VALID,353,VALID,0,
2012-11-21, 02:36:05,VALID,916.883,VALID,0,VALID,95.4375,VALID,0,VALID,18.6903,VALID,353,VALID,0,
2012-11-21, 02:37:05,VALID,916.895,VALID,0,VALID,95.2241,VALID,0,VALID,18.6513,VALID,353,VALID,0,
2012-11-21, 02:38:05,VALID,916.891,VALID,0,VALID,94.9268,VALID,0,VALID,18.5943,VALID,353,VALID,0,
2012-11-21, 02:39:05,VALID,916.891,VALID,0,VALID,94.9496,VALID,0,VALID,18.5344,VALID,353,VALID,0,
2012-11-21, 02:40:05,VALID,916.909,VALID,0,VALID,94.9649,VALID,0,VALID,18.4759,VALID,353,VALID,0,
2012-11-21, 02:41:05,VALID,916.931,VALID,0,VALID,95.1936,VALID,0,VALID,18.5163,VALID,353,VALID,0,
2012-11-21, 02:42:05,VALID,916.888,VALID,0,VALID,95.2317,VALID,0,VALID,18.4759,VALID,353,VALID,0,
2012-11-21, 02:43:05,VALID,916.892,VALID,0,VALID,95.3232,VALID,0,VALID,18.4954,VALID,353,VALID,0,
2012-11-21, 02:44:05,VALID,916.889,VALID,0,VALID,95.4071,VALID,0,VALID,18.5163,VALID,353,VALID,0,
2012-11-21, 02:45:05,VALID,916.864,VALID,0,VALID,95.4757,VALID,0,VALID,18.5344,VALID,353,VALID,0,
2012-11-21, 02:46:05,VALID,916.859,VALID,0,VALID,95.4452,VALID,0,VALID,18.5748,VALID,353,VALID,0,
2012-11-21, 02:47:05,VALID,916.854,VALID,0,VALID,95.3003,VALID,0,VALID,18.5539,VALID,353,VALID,0,
2012-11-21, 02:48:05,VALID,916.846,VALID,0,VALID,95.2851,VALID,0,VALID,18.5539,VALID,353,VALID,0,
2012-11-21, 02:49:05,VALID,916.816,VALID,0,VALID,95.2317,VALID,0,VALID,18.5539,VALID,353,VALID,0,
2012-11-21, 02:50:05,VALID,916.79,VALID,0,VALID,95.2012,VALID,0,VALID,18.5734,VALID,353,VALID,0,
2012-11-21, 02:51:05,VALID,916.759,VALID,0,VALID,95.2088,VALID,0,VALID,18.5734,VALID,353,VALID,0,
2012-11-21, 02:52:05,VALID,916.755,VALID,0,VALID,95.1326,VALID,0,VALID,18.5929,VALID,353,VALID,0,
2012-11-21, 02:53:05,VALID,916.73,VALID,0,VALID,95.0488,VALID,0,VALID,18.5929,VALID,353,VALID,0,
2012-11-21, 02:54:05,VALID,916.772,VALID,0,VALID,94.9496,VALID,0,VALID,18.6124,VALID,353,VALID,0,
2012-11-21, 02:55:05,VALID,916.719,VALID,0,VALID,94.9573,VALID,0.107441,VALID,18.6124,VALID,353,VALID,0,
2012-11-21, 02:56:05,VALID,916.729,VALID,0,VALID,94.7514,VALID,0,VALID,18.5943,VALID,353,VALID,0,
2012-11-21, 02:57:05,VALID,916.703,VALID,0,VALID,94.7438,VALID,0,VALID,18.5943,VALID,353,VALID,0,
2012-11-21, 02:58:05,VALID,916.696,VALID,0,VALID,94.7896,VALID,0,VALID,18.5539,VALID,353,VALID,0,
2012-11-21, 02:59:05,VALID,916.645,VALID,0,VALID,95.0792,VALID,0,VALID,18.6138,VALID,353,VALID,0,
2012-11-21, 03:00:05,VALID,916.635,VALID,0,VALID,95.003,VALID,0,VALID,18.6124,VALID,353,VALID,0,
2012-11-21, 03:01:05,VALID,916.625,VALID,0,VALID,94.9039,VALID,0,VALID,18.6124,VALID,353,VALID,0,
2012-11-21, 03:02:05,VALID,916.637,VALID,0,VALID,95.0259,VALID,0,VALID,18.6124,VALID,353,VALID,0,
2012-11-21, 03:03:05,VALID,916.608,VALID,0,VALID,95.1174,VALID,0,VALID,18.6723,VALID,353,VALID,0,
2012-11-21, 03:04:05,VALID,916.637,VALID,0,VALID,95.2851,VALID,0,VALID,18.6918,VALID,353,VALID,0,
2012-11-21, 03:05:05,VALID,916.592,VALID,0,VALID,95.4071,VALID,0,VALID,18.7503,VALID,4,VALID,0,
2012-11-21, 03:06:05,VALID,916.643,VALID,0,VALID,95.2851,VALID,0,VALID,18.7683,VALID,25,VALID,0,
2012-11-21, 03:07:05,VALID,916.648,VALID,0,VALID,95.1631,VALID,0,VALID,18.8282,VALID,25,VALID,0,
2012-11-21, 03:08:05,VALID,916.657,VALID,0,VALID,95.0106,VALID,0,VALID,18.8477,VALID,25,VALID,0,
2012-11-21, 03:09:05,VALID,916.637,VALID,0,VALID,94.8505,VALID,0,VALID,18.8073,VALID,25,VALID,0,
2012-11-21, 03:10:05,VALID,916.596,VALID,0,VALID,94.7819,VALID,0,VALID,18.8463,VALID,25,VALID,0,
2012-11-21, 03:11:05,VALID,916.592,VALID,0,VALID,94.5609,VALID,0,VALID,18.8282,VALID,25,VALID,0,
2012-11-21, 03:12:05,VALID,916.547,VALID,0,VALID,94.4694,VALID,0,VALID,18.8282,VALID,25,VALID,0,
2012-11-21, 03:13:05,VALID,916.538,VALID,0,VALID,94.416,VALID,0,VALID,18.7892,VALID,25,VALID,0,
2012-11-21, 03:14:05,VALID,916.539,VALID,0,VALID,94.5075,VALID,0,VALID,18.7697,VALID,25,VALID,0,
2012-11-21, 03:15:05,VALID,916.523,VALID,0,VALID,94.4541,VALID,0,VALID,18.7308,VALID,25,VALID,0,
2012-11-21, 03:16:05,VALID,916.484,VALID,0,VALID,94.538,VALID,0,VALID,18.7113,VALID,25,VALID,0,
2012-11-21, 03:17:05,VALID,916.485,VALID,0,VALID,94.66,VALID,0,VALID,18.6918,VALID,25,VALID,0,
2012-11-21, 03:18:05,VALID,916.473,VALID,0,VALID,94.6905,VALID,0,VALID,18.6528,VALID,25,VALID,0,
2012-11-21, 03:19:05,VALID,916.451,VALID,0,VALID,94.9039,VALID,0,VALID,18.6333,VALID,25,VALID,0,
2012-11-21, 03:20:05,VALID,916.419,VALID,0,VALID,94.9192,VALID,0,VALID,18.6138,VALID,25,VALID,0,
2012-11-21, 03:21:05,VALID,916.401,VALID,0,VALID,95.125,VALID,0,VALID,18.5943,VALID,25,VALID,0,
2012-11-21, 03:22:05,VALID,916.38,VALID,0,VALID,95.3918,VALID,0,VALID,18.6333,VALID,25,VALID,0,
2012-11-21, 03:23:05,VALID,916.349,VALID,0,VALID,95.5671,VALID,0,VALID,18.6723,VALID,25,VALID,0,
2012-11-21, 03:24:05,VALID,916.349,VALID,0,VALID,95.6815,VALID,0,VALID,18.7308,VALID,17,VALID,0,
2012-11-21, 03:25:05,VALID,916.341,VALID,0,VALID,95.7958,VALID,0,VALID,18.7503,VALID,17,VALID,0,
2012-11-21, 03:26:05,VALID,916.362,VALID,0,VALID,95.6967,VALID,0,VALID,18.7878,VALID,17,VALID,0,
2012-11-21, 03:27:05,VALID,916.352,VALID,0,VALID,95.5595,VALID,0,VALID,18.8477,VALID,17,VALID,0,
2012-11-21, 03:28:05,VALID,916.326,VALID,0,VALID,95.5062,VALID,0,VALID,18.8672,VALID,17,VALID,0,
2012-11-21, 03:29:04,VALID,916.311,VALID,0,VALID,95.4147,VALID,0,VALID,18.9257,VALID,17,VALID,0,
2012-11-21, 03:30:04,VALID,916.35,VALID,0,VALID,95.2775,VALID,0,VALID,18.8853,VALID,17,VALID,0,
2012-11-21, 03:31:04,VALID,916.354,VALID,0,VALID,95.1631,VALID,0,VALID,18.9243,VALID,17,VALID,0,
2012-11-21, 03:32:04,VALID,916.371,VALID,0,VALID,94.9268,VALID,0,VALID,18.9257,VALID,17,VALID,0,
2012-11-21, 03:33:04,VALID,916.369,VALID,0,VALID,94.8048,VALID,0,VALID,18.8853,VALID,17,VALID,0,
2012-11-21, 03:34:04,VALID,916.378,VALID,0,VALID,94.7819,VALID,0.107441,VALID,18.9062,VALID,17,VALID,0,
2012-11-21, 03:35:04,VALID,916.4,VALID,0,VALID,94.6523,VALID,0,VALID,18.8672,VALID,17,VALID,0,
2012-11-21, 03:36:04,VALID,916.383,VALID,0,VALID,94.4465,VALID,0,VALID,18.8282,VALID,17,VALID,0,
2012-11-21, 03:37:04,VALID,916.409,VALID,0,VALID,94.4313,VALID,0,VALID,18.8073,VALID,17,VALID,0,
2012-11-21, 03:38:04,VALID,916.424,VALID,0,VALID,94.5837,VALID,0,VALID,18.8282,VALID,17,VALID,0,
2012-11-21, 03:39:04,VALID,916.432,VALID,0,VALID,94.5532,VALID,0,VALID,18.8087,VALID,17,VALID,0,
2012-11-21, 03:40:04,VALID,916.399,VALID,0,VALID,94.4465,VALID,0,VALID,18.7892,VALID,17,VALID,0,
2012-11-21, 03:41:04,VALID,916.396,VALID,0,VALID,94.3474,VALID,0,VALID,18.7697,VALID,17,VALID,0,
2012-11-21, 03:42:04,VALID,916.419,VALID,0,VALID,94.355,VALID,0,VALID,18.7503,VALID,17,VALID,0,
2012-11-21, 03:43:04,VALID,916.375,VALID,0,VALID,94.3703,VALID,0,VALID,18.7113,VALID,17,VALID,0,
2012-11-21, 03:44:04,VALID,916.394,VALID,0,VALID,94.5761,VALID,0,VALID,18.7113,VALID,17,VALID,0,
2012-11-21, 03:45:04,VALID,916.378,VALID,0,VALID,94.7514,VALID,0,VALID,18.6903,VALID,17,VALID,0,
2012-11-21, 03:46:04,VALID,916.375,VALID,0,VALID,95.0106,VALID,0,VALID,18.7308,VALID,17,VALID,0,
2012-11-21, 03:47:04,VALID,916.377,VALID,0,VALID,94.9268,VALID,0,VALID,18.7308,VALID,17,VALID,0,
2012-11-21, 03:48:04,VALID,916.411,VALID,0,VALID,94.6981,VALID,0,VALID,18.6723,VALID,17,VALID,0,
2012-11-21, 03:49:04,VALID,916.429,VALID,0,VALID,94.7514,VALID,0,VALID,18.6528,VALID,17,VALID,0,
2012-11-21, 03:50:04,VALID,916.422,VALID,0,VALID,94.6295,VALID,0,VALID,18.6528,VALID,17,VALID,0,
2012-11-21, 03:51:04,VALID,916.402,VALID,0,VALID,94.7286,VALID,0,VALID,18.6138,VALID,17,VALID,0,
2012-11-21, 03:52:04,VALID,916.398,VALID,0,VALID,94.881,VALID,0,VALID,18.6333,VALID,17,VALID,0,
2012-11-21, 03:53:04,VALID,916.383,VALID,0,VALID,94.9115,VALID,0,VALID,18.6138,VALID,17,VALID,0,
2012-11-21, 03:54:04,VALID,916.372,VALID,0,VALID,94.5151,VALID,0,VALID,18.5358,VALID,17,VALID,0,
2012-11-21, 03:55:04,VALID,916.373,VALID,0,VALID,94.7972,VALID,0,VALID,18.5163,VALID,17,VALID,0,
2012-11-21, 03:56:04,VALID,916.353,VALID,0,VALID,95.1479,VALID,0,VALID,18.5358,VALID,17,VALID,0,
2012-11-21, 03:57:04,VALID,916.394,VALID,0,VALID,95.1707,VALID,0,VALID,18.5358,VALID,17,VALID,0,
2012-11-21, 03:58:04,VALID,916.361,VALID,0,VALID,95.0792,VALID,0,VALID,18.4759,VALID,17,VALID,0,